SVJC/LSP METAR and TAF weather

Enter ICAO airport designator
Station Type Date Time Source
SVJC METAR 2020/10/02 10:00 UTC NOAA

SVJC 021000Z NI CHECK TEXT NEW ENDING ADDED KATLYTAA


Station Type Date Time Source
SVJC Decoded METAR 2020/10/02 10:00 UTC NOAA

Paraguana / Josefa, Venezuela (SVJC) 11-47N 070-09W
Oct 02, 2020 - 06:00 AM EDT / 2020.10.02 1000 UTC
ob: SVJC 021000Z NI CHECK TEXT NEW ENDING ADDED KATLYTAA
cycle: 10

Station Type Date Time Source
SVJC TAF 2021/03/06 06:03 UTC NOAA

TAF TAF SVJC 060400Z 0606/0706 11010KT 9999 FEW013 TX33/0615Z TN23/0607Z
BECMG 0606/0610 09013KT FEW016 SCT100

Example: see airport list